Meteo Giornale » Osservazioni meteo Italia » Treviso-Istrana

ore: 20:55 - Osservazioni Meteo Treviso-Istrana
Lat. 45° 41' N Lon. 12° 6' E Alt. 45 metri s.l.m.

poco_nuvoloso Europe/Rome

21 °C

Poco Nuvoloso

Temp. 24 Ore

17 °C

23 °C

Nord

3.7 Km/h

Dew point 16 °C

Umidità 73 %

Visibilità  10 Km

Il sole sorge alle ore 05:28

Il sole tramonta alle ore 20:48

Data e Ora Cielo e Fenomeni T °C DP °C Um. % Pres. hPa Vis. km Vento km/h
Oggi h: 20:55 poco_nuvoloso Poco Nuvoloso 21 16 73 1014 10 N 3.7
Oggi h: 19:55 sereno Sereno 21 17 77 1013 10 N 3.7
Oggi h: 18:55 sereno Sereno 22 16 68 1013 10 O/SO 7.4
Oggi h: 17:55 sereno Sereno 22 16 68 1013 10 S 7.4
Oggi h: 16:55 nuvoloso Nuvoloso 23 17 68 1013 10 S/SO 13
Oggi h: 15:55 nuvoloso Nuvoloso 23 17 68 1013 10 E/SE 7.4
Oggi h: 14:55 poco_nuvoloso Poco Nuvoloso 23 16 64 1014 10 E 11.1
Oggi h: 13:55 nuvoloso Nuvoloso 23 16 64 1014 10 E/NE 14.8
Oggi h: 12:55 nuvoloso Nuvoloso 23 18 73 1015 10 N 14.8
Oggi h: 11:55 molto_nuvoloso Molto Nuvoloso 22 17 73 1015 9 NO 11.1
Oggi h: 10:55 molto_nuvoloso Molto Nuvoloso 23 16 64 1014 9 NE 11.1
Oggi h: 09:55 molto_nuvoloso Molto Nuvoloso 20 16 77 1014 8 E 9.3
Oggi h: 08:55 poco_nuvoloso Poco Nuvoloso 19 17 88 1014 7 E/NE 11.1
Oggi h: 07:55 nuvoloso Nuvoloso 18 17 93 1013 6 NE 7.4
Oggi h: 06:55 foschia Foschia 17 16 93 1013 4 N/NE 7.4
Oggi h: 05:55 foschia Foschia 17 16 93 1013 4 NE 9.3
Oggi h: 04:55 nuvoloso Nuvoloso 18 17 93 1013 6 NE 7.4
Oggi h: 03:55 nuvoloso Nuvoloso 18 17 93 1012 6 NE 9.3
Oggi h: 00:55 sereno Sereno 18 18 100 1013 6 N 0
Ieri h: 23:55 sereno Sereno 18 17 93 1012 8 N 5.5
Ieri h: 21:55 sereno Sereno 19 18 93 1012 10 E 7.4